AQI (48)

Current Conditions for Foresthill, CA. Sunny, Dry   
Visibility: 10 miles
Foresthill Advisory text:

  Summary / Temperature 

Current Temperature
75.0°F
23.9°C
(24/hr Ago)
67.7°F
(Apparent temp)
77.5°F
Comfortable
Heat Index
76.3°F 

81.3°F/ 27.4°C
Little or no discomfort

 Temp Rate:

 24/hr Difference:

 Avg Running Temp:

 Todays High:

 Todays Low:

 Y-days High:

 Y-days Low:

 Todays HeatIdx:

 Y-days HeatIdx:

 Evapotranspiration:

-0.5°F/hr 

+7.3°F

75.9°F

77.3°F 4:34pm

55.6°F 2:48am

69.1°F 4:35pm

49.2°F 5:51am

78.2°F 4:45pm

71.0°F 3:35pm

0.190 in

115' Above Ground

 Temperature:

 6'AGL VRS 115'AGL:

 Avg Running Temp:

 Humidity:

 Todays High:

 Todays Low:

 Y-days High:

 Y-days Low:

76.0°F 

+1°F

76.7°F

51% 

79.0°F 4:30pm

59.0°F 4:25am

70.0°F 4:25pm

50.0°F 2:58am

Temp & Humidity Graphs

  Wind 

Wind Speed

 Calm

Gusting to

 3.0 mph

Calm

255°  

Calm

 Avg speed:

 Wind Run:

 Peak Gust:

Calm 

15.0 miles

  14.0 mph 7:19am

  Almanac  

Moon age: 2 days,21 hours,3 minutes,9%

Waxing Crescent
15%
Illuminated
3 days in cycle

 Moonrise:

 Moonset:

 Sunrise:

 Sunset:

 Solar Noon:

8:47am

11:28pm

5:40am

8:19pm

1:00pm

1min 16s more daylight tomorrow 

  Solar Radiation 

(Current Solar)
  183 W/m2 (89%)
(Todays High)
 956 W/m2@12:58pm
Feels like: 84.2°F in the sun

Rain

 Rain Today:

 Rain Rate (/hr):

 Rain last hour:

 Rain Yesterday:

 This Month:

 Season Total:

10 Days Since Last Rain Day

0.00 in

0.000 in

0.00 in

0.00 in

0.40 in

82.24 in

Updated Time

Updated: 5/28/17  6:58pm

(Updated  sec ago)

Humidity & Barometer

 Humidity:

 Wetbulb:

 Dew Point:

 Barometer:

55% 

64.4°F 

57.7°F 

29.969 inHg 

 Baro Trend:  Falling Slowly 
Northern Calif
Preparedness
Fire 
Level 

    UV Index  

(Current UV)
0.5  Low
(Todays High) @ 12:42pm
8.8   Very High

National Weather Service Forecast

Tonight

Tonight: Mostly Clear
Mostly Clear
Memorial
Day
Memorial Day: Mostly Sunny
Mostly Sunny
Monday
Night
Monday Night: Mostly Clear
Mostly Clear
Tuesday

Tuesday: Mostly Sunny
Mostly Sunny
Tuesday
Night
Tuesday Night: Partly Cloudy then Slight Chance Rain Showers
Partly Cloudy
Wednesday

Wednesday: Slight Chance Rain Showers
Slight Chance Rain Showers
Lo 58 °F Hi 83 °F Lo 58 °F Hi 80 °F Lo 56 °F Hi 74 °F

Foresthill Probe 2 Stats  
Foresthill Probe 2: is located on Thomas Street
at 3000 feet. The main Foresthill Weather site
is located on Melody ln at the 2860 foot elevation

Calm
75.1°F
23.9°C
Temp Rate:
-1.6°F
Calm
Gusting to
None
(Humidity)
53%
Calm
236°  
Updated: 28/05/17 - 18:54:30
 Todays High: 81.1°F 14:53
 Todays Low: 54.5°F 04:20
 Rain Today: 0.00 in
 Season Total: 88.61 in

Foresthill Wx: Monthly,Yearly, Highs and Lows 

Foresthill  
This Weather Data is coming from the main Foresthill
Weather site located on Melody ln at the 2860 foot
elevation
Not Foresthill Probe 2
Weather Data
Month
  High
Month
  Low
Year
High
Year
Low
Temp 86.5°F
5/23/17
40.1°F
5/13/17
86.5°F
5/23/17
27.6°F
2/24/17
Humidity 92%
5/6/17
22%
5/1/17
100%
1/1/17
20%
4/28/17
Heat Index 85.6°F
5/23/17
44.3°F
5/14/17
85.6°F
5/23/17
32.5°F
2/24/17
Wind Chill 86.5°F
5/23/17
34.8°F
5/13/17
86.5°F
5/23/17
14.0°F
2/24/17
Wind Gust 26 mph
5/3/17
0 mph
5/1/17
48 mph
1/10/17
0 mph
1/1/17
Barometer 30.12 in
5/12/17
29.60 in
5/25/17
30.69 in
1/27/17
29.29 in
2/17/17
ET 0.24 in
5/3/17
0.00 in
5/1/17
0.24 in
5/3/17
0.00 in
1/1/17
Dew Point 61.7°F
5/4/17
27.3°F
5/13/17
61.7°F
5/4/17
20.6°F
4/28/17
Pacific Satellite US Radar Satellite Imagery Sacramento,CA.  (click to enlarge)
NWS Weather Forecast - Summary
Updated: Sun May 28, 2017 - 2:59pm (PDT)
Current Interstate Highway Conditions for I-80 & US-50

[I 80: IN THE SAN FRANCISCO BAY AREA - SOLANO CO]
no traffic restrictions are reported for this area.

[I 80: IN THE NORTHERN CALIFORNIA AREA & SIERRA NEVADA]
eastbound traffic is reduced to 1 lane from 0. 5 mi east of kingvale to 1. 7 mi east of kingvale (NEVADA CO) - due to emergency repairs

[US 50: IN THE SACRAMENTO VALLEY & THE LAKE TAHOE BASIN]
is reduced to 1 lane in each direction from 3 mi east of pollock pines to 1 mi west of riverton /at bridal veil falls rd/ (EL DORADO CO) - due to a slipout - motorists are subject to delays
NWS Weather Forecast: Tonight and Memorial Day (Updated: Sun, 28-May-2017 3:11pm PDT)
Tonight

Tonight: Mostly Clear
Mostly Clear

Lo 58 °F
NWS forecast: Mostly clear, with a low around 58. East southeast wind 2 to 6 mph.
Memorial
Day
Memorial Day: Mostly Sunny
Mostly Sunny

Hi 83 °F
NWS forecast: Mostly sunny, with a high near 83. Southwest wind 2 to 7 mph.
YR.NO 10 Day Weather forecast
Last update: 05/28/2017 @ 12:33
Next update: 05/29/2017 @ 01:00
Provided by: 22
      Temperature Precipitation Pressure Wind  
Today
05/28/2017
17:00 18:00 79°F   29.96 inHg Light breeze from west-southwest 4 mph
  18:00 00:00 77°F   29.94 inHg Light breeze from west-southwest 6 mph
    (Click to enlarge)
meteogram

    Forecast for next 9 days

      Temperature Precip Pressure Wind  
Monday
05/29/2017
00:00 06:00 54°F   29.96 inHg Light breeze from east-northeast 4 mph
  06:00 12:00 50°F   29.93 inHg Light breeze from east-northeast 4 mph
  12:00 18:00 79°F   29.89 inHg Light breeze from west-southwest 7 mph
  18:00 00:00 77°F   29.84 inHg Light breeze from west-southwest 6 mph
      Temperature Precip Pressure Wind  
Tuesday
05/30/2017
00:00 06:00 54°F   29.88 inHg Light breeze from east-northeast 4 mph
  06:00 12:00 50°F   29.86 inHg Light breeze from east-northeast 4 mph
  12:00 18:00 77°F   29.90 inHg Light breeze from southwest 6 mph
  18:00 00:00 70°F   29.83 inHg Light breeze from south 5 mph
      Temperature Precip Pressure Wind  
Wednesday
05/31/2017
00:00 06:00 57°F   29.85 inHg Light breeze from east-southeast 6 mph
  05:00 11:00 54°F 0.02 in 29.85 inHg Light breeze from south 4 mph
  11:00 17:00 64°F   29.93 inHg Light breeze from southwest 6 mph
  17:00 23:00 68°F   29.88 inHg Light breeze from southwest 5 mph
  23:00 05:00 55°F   29.90 inHg Light breeze from east-southeast 4 mph
      Temperature Precip Pressure Wind  
Thursday
06/01/2017
05:00 11:00 46°F   29.88 inHg Light breeze from east-northeast 4 mph
  11:00 17:00 68°F   29.91 inHg Light breeze from southwest 6 mph
  17:00 23:00 72°F   29.85 inHg Light breeze from southwest 6 mph
  23:00 05:00 55°F   29.89 inHg Light breeze from east-southeast 4 mph
      Temperature Precip Pressure Wind  
Friday
06/02/2017
05:00 11:00 48°F   29.86 inHg Light breeze from east 4 mph
  11:00 17:00 70°F   29.89 inHg Light breeze from south-southwest 7 mph
  17:00 23:00 72°F   29.86 inHg Light breeze from southwest 6 mph
  23:00 05:00 55°F   29.89 inHg Light air from east-northeast 2 mph
      Temperature Precip Pressure Wind  
Saturday
06/03/2017
05:00 11:00 46°F   29.83 inHg Light breeze from east-northeast 5 mph
  11:00 17:00 73°F   29.85 inHg Light breeze from west 6 mph
  17:00 23:00 75°F   29.81 inHg Light breeze from west 7 mph
  23:00 05:00 54°F   29.82 inHg Light breeze from east-northeast 5 mph
      Temperature Precip Pressure Wind  
Sunday
06/04/2017
05:00 11:00 46°F   29.77 inHg Light breeze from east-northeast 5 mph
  11:00 17:00 70°F   29.78 inHg Light breeze from west-southwest 6 mph
  17:00 23:00 72°F   29.73 inHg Light breeze from west 7 mph
  23:00 05:00 57°F   29.76 inHg Light breeze from east-southeast 5 mph
      Temperature Precip Pressure Wind  
Monday
06/05/2017
05:00 11:00 46°F   29.75 inHg Light breeze from east-northeast 7 mph
  11:00 17:00 72°F   29.80 inHg Gentle breeze from west-southwest 8 mph
  17:00 23:00 75°F   29.78 inHg Light breeze from west-southwest 7 mph
  23:00 05:00 57°F   29.89 inHg Light breeze from east 5 mph
      Temperature Precip Pressure Wind  
Tuesday
06/06/2017
05:00 11:00 50°F   29.87 inHg Light breeze from east-northeast 7 mph
  11:00 17:00 79°F   29.85 inHg Light breeze from west 6 mph
  17:00 23:00 81°F   29.80 inHg Light breeze from west 6 mph
  23:00 05:00 61°F   29.82 inHg Light breeze from east 4 mph
How Close Are We To this Month's Temperature Record ?
Updated Sunday, May 28, 2017- 6:50:01 PM

Current Temperature: 75.0°F

May's High: Temperature Record 86.5°F - Set on Tue, May 23, 2017 - 1:25:51 PM
We are currently 11.5°F Less than this Month's record High

May's Low: Temperature Record 39.2°F - Set on Fri, May 25, 2012 - 6:42:00 AM
We are currently 35.8°F More than this Month's record Low

Weather History For Sunday, May 28, 2017


On this Day - In Weather History ...
Data courtesy of weatherforyou.com
powered by Cumulus v1.9.3 (1059)
Ambient Weather VWS v14.00
Top Contact Website Map Copyright © 2007 - 2017 Foresthillweather.com Never base important decisions on this or any weather information obtained from the Internet